This is the latest recevied weather packets stored in our database for station/object EA6AMI-5. If no packets are shown the sender has not sent any weather packets the latest 10 day(s).
| Time | Temp. | Humidity | Pressure | Rain* | Wind** | Luminosity | Snow |
|---|---|---|---|---|---|---|---|
| 1778058004 | 20° C | 56% | 1012 hPa | 0 mm | - | 589 W/m² | - |
| 1778057643 | 20° C | 56% | 1012.1 hPa | 0 mm | - | 567 W/m² | - |
| 1778057104 | 19.44° C | 59% | 1012 hPa | 0 mm | - | 545 W/m² | - |
| 1778056563 | 20° C | 59% | 1012.4 hPa | 0 mm | - | 508 W/m² | - |
| 1778056024 | 19.44° C | 60% | 1012.2 hPa | 0 mm | - | 477 W/m² | - |
| 1778055484 | 19.44° C | 64% | 1012.3 hPa | 0 mm | - | 432 W/m² | - |
| 1778054943 | 18.89° C | 64% | 1012.3 hPa | 0 mm | - | 386 W/m² | - |
| 1778054403 | 18.89° C | 65% | 1012.3 hPa | 0 mm | - | 385 W/m² | - |
| 1778054043 | 18.33° C | 66% | 1012.1 hPa | 0 mm | - | 361 W/m² | - |
| 1778053504 | 18.33° C | 67% | 1012.2 hPa | 0 mm | - | 329 W/m² | - |
| 1778052963 | 18.33° C | 68% | 1012.2 hPa | 0 mm | - | 308 W/m² | - |
| 1778052424 | 17.78° C | 70% | 1012.3 hPa | 0 mm | - | 293 W/m² | - |
| 1778051884 | 17.78° C | 72% | 1012.3 hPa | 0 mm | - | 275 W/m² | - |
| 1778051344 | 17.22° C | 77% | 1012.1 hPa | 0 mm | - | 244 W/m² | - |
| 1778050804 | 16.67° C | 79% | 1012.1 hPa | 0 mm | - | 161 W/m² | - |
| 1778050443 | 15.56° C | 83% | 1012.3 hPa | 0 mm | - | 151 W/m² | - |
| 1778049904 | 15° C | 84% | 1012.2 hPa | 0 mm | - | 63 W/m² | - |
| 1778049364 | 14.44° C | 84% | 1012.4 hPa | 0 mm | - | 59 W/m² | - |
| 1778048824 | 14.44° C | 83% | 1012.5 hPa | 0 mm | - | 45 W/m² | - |
| 1778048284 | 14.44° C | 86% | 1012.5 hPa | 0 mm | - | 55 W/m² | - |
| 1778047744 | 14.44° C | 87% | 1012.5 hPa | 0 mm | - | 39 W/m² | - |
| 1778047204 | 13.89° C | 87% | 1012.6 hPa | 0 mm | - | 48 W/m² | - |
| 1778046843 | 13.33° C | 86% | 1012.5 hPa | 0 mm | - | 38 W/m² | - |
| 1778046304 | 12.78° C | 86% | 1012.5 hPa | 0 mm | - | 29 W/m² | - |
| 1778045763 | 12.22° C | 86% | 1012.3 hPa | 0 mm | - | 23 W/m² | - |
* Rain latest hour (hover to see other rain measurements)
** Current wind speed in m/s (hover to see current wind gust speed)